"Pseudo-MPEC" for P11JDFC

Created 2023 Sep 27 1:22:11 UT using Find_Orb

Click here for an explanation of pseudo-MPECs

 
 Astrometry: 
     P11JDFC* C2023 09 159)sA2-RxqAJ'R6GF'2wcdAstrometrysah]`+qD!j?4bM@`x7[#4F51
     P11JDFC  C2023 09 159e4tRe78xredacted;_v9jndiclicko.b]p5$0hokEgYhere^-G2F51
     P11JDFC  C2023 09 15_2IforU%:!;_o%Ng6]ZGHOexplanationlmp+#M=b:@?B2t7qipyF51

Station data:
(F51) Pan-STARRS 1, Haleakala  (N20.707234 W156.255910)  US/Hawaii.
   Observers J. Bulger, T. Lowe, A. Schultz, M. Willman. Measurers K.
   Chambers, S. Chastel, T. de Boer, L. Denneau, J. Fairlamb, H. Flewelling,
   M. Huber, C.-C. Lin, E. Magnier, Y. Ramanjooloo, R. Wainscoat, R. Weryk.
   1.8-m Ritchey-Chrétien + CCD.

Orbital elements:  P11JDFC
   Perihelion 2023 Oct 7.04899 +/- 47.5 TT =  1:10:33 (JD 2460224.54899)
Epoch 2023 Sep 15.0 TT = JDT 2460202.5   Earth MOID: 0.4269   Ma: 0.0718
M 354.16332131 +/- 18               (J2000 ecliptic)             AutoNEOCP
n   0.26471404 +/- 0.254            Peri.  304.69139 +/- 100
a   2.40224919 +/- 1.54             Node    59.03604 +/- 49
e   0.4227130 +/- 0.255             Incl.   11.40968 +/- 5.7
P   3.72                   H 22.10  G  0.15   U 11.8  SR
q 1.38678703 +/- 0.403    Q 3.41771135 +/- 114
From 3 observations 2023 Sept. 15 (40.0 min); mean residual 0".11
Residuals in arcseconds: 
230915 F51  .00   .14+    230915 F51  .00   .21-    230915 F51  .00   .08+    

Ephemerides (geocentric):
Date (UTC) HH   RA             Dec           delta  r     elong  mag " sig PA
---- --------  ------------   ------------  ------ ------ -----  --- --------
2023 09 27 01  23 45 58.164   -36 56 26.12  .45853 1.3900 141.2 22.3  31d 106
2023 09 27 02  23 45 57.568   -36 55 40.51  .45855 1.3900 141.2 22.3  31d 106
2023 09 27 03  23 45 56.972   -36 54 54.97  .45857 1.3900 141.2 22.3  31d 106
2023 09 27 04  23 45 56.375   -36 54 09.48  .45859 1.3900 141.2 22.3  31d 106
2023 09 27 05  23 45 55.777   -36 53 24.04  .45861 1.3899 141.2 22.3  31d 106
2023 09 27 06  23 45 55.179   -36 52 38.67  .45863 1.3899 141.2 22.3  31d 106
2023 09 27 07  23 45 54.580   -36 51 53.35  .45865 1.3899 141.2 22.3  31d 106
2023 09 27 08  23 45 53.980   -36 51 08.08  .45867 1.3898 141.2 22.3  31d 106
2023 09 27 09  23 45 53.380   -36 50 22.88  .45869 1.3898 141.2 22.3  31d 106
2023 09 27 10  23 45 52.780   -36 49 37.73  .45871 1.3898 141.2 22.3  31d 106
2023 09 27 11  23 45 52.178   -36 48 52.63  .45873 1.3897 141.1 22.3  31d 106
2023 09 27 12  23 45 51.577   -36 48 07.60  .45874 1.3897 141.1 22.3  31d 106
2023 09 27 13  23 45 50.974   -36 47 22.62  .45876 1.3897 141.1 22.3  31d 106
2023 09 27 14  23 45 50.371   -36 46 37.70  .45878 1.3897 141.1 22.3  31d 106
2023 09 27 15  23 45 49.767   -36 45 52.83  .45880 1.3896 141.1 22.3  31d 106
2023 09 27 16  23 45 49.163   -36 45 08.02  .45882 1.3896 141.1 22.3  31d 106
2023 09 27 17  23 45 48.557   -36 44 23.26  .45884 1.3896 141.1 22.3  31d 106
2023 09 27 18  23 45 47.952   -36 43 38.57  .45885 1.3895 141.1 22.3  31d 106
2023 09 27 19  23 45 47.345   -36 42 53.93  .45887 1.3895 141.1 22.3  31d 106
2023 09 27 20  23 45 46.738   -36 42 09.34  .45889 1.3895 141.1 22.3  31d 107
2023 09 27 21  23 45 46.130   -36 41 24.81  .45890 1.3894 141.0 22.3  31d 107
2023 09 27 22  23 45 45.522   -36 40 40.34  .45892 1.3894 141.0 22.3  31d 107
2023 09 27 23  23 45 44.913   -36 39 55.92  .45894 1.3894 141.0 22.3  31d 107
2023 09 28 00  23 45 44.303   -36 39 11.56  .45895 1.3893 141.0 22.3  31d 107
2023 09 28 01  23 45 43.692   -36 38 27.26  .45897 1.3893 141.0 22.3  31d 107
2023 09 28 02  23 45 43.081   -36 37 43.01  .45899 1.3892 141.0 22.3  31d 107
2023 09 28 03  23 45 42.469   -36 36 58.82  .45900 1.3892 141.0 22.3  31d 107
2023 09 28 04  23 45 41.857   -36 36 14.68  .45902 1.3892 141.0 22.3  31d 107
2023 09 28 05  23 45 41.243   -36 35 30.60  .45903 1.3891 141.0 22.3  31d 107
2023 09 28 06  23 45 40.629   -36 34 46.58  .45905 1.3891 140.9 22.3  31d 107
2023 09 28 07  23 45 40.014   -36 34 02.61  .45906 1.3891 140.9 22.3  31d 107
2023 09 28 08  23 45 39.399   -36 33 18.69  .45908 1.3890 140.9 22.3  31d 107
2023 09 28 09  23 45 38.782   -36 32 34.84  .45909 1.3890 140.9 22.3  31d 107
2023 09 28 10  23 45 38.165   -36 31 51.03  .45910 1.3889 140.9 22.3  31d 107
2023 09 28 11  23 45 37.547   -36 31 07.29  .45912 1.3889 140.9 22.3  31d 107
2023 09 28 12  23 45 36.929   -36 30 23.60  .45913 1.3889 140.9 22.3  31d 107
2023 09 28 13  23 45 36.310   -36 29 39.96  .45915 1.3888 140.9 22.3  31d 108
2023 09 28 14  23 45 35.690   -36 28 56.38  .45916 1.3888 140.9 22.3  31d 108
2023 09 28 15  23 45 35.069   -36 28 12.86  .45917 1.3887 140.8 22.3  30d  90
2023 09 28 16  23 45 34.447   -36 27 29.39  .45919 1.3887 140.8 22.3  30d  90
2023 09 28 17  23 45 33.825   -36 26 45.97  .45920 1.3886 140.8 22.3  30d  90
2023 09 28 18  23 45 33.201   -36 26 02.61  .45921 1.3886 140.8 22.3  30d  90
2023 09 28 19  23 45 32.577   -36 25 19.31  .45922 1.3886 140.8 22.3  30d  91
2023 09 28 20  23 45 31.953   -36 24 36.06  .45923 1.3885 140.8 22.3  30d  91
2023 09 28 21  23 45 31.327   -36 23 52.87  .45925 1.3885 140.8 22.3  30d  91
2023 09 28 22  23 45 30.700   -36 23 09.73  .45926 1.3884 140.8 22.3  30d  91
2023 09 28 23  23 45 30.073   -36 22 26.65  .45927 1.3884 140.8 22.3  30d  91
2023 09 29 00  23 45 29.445   -36 21 43.62  .45928 1.3883 140.7 22.3  30d  91